Zurück zum Katalog

SUCHAI-4

AktivMilitärSSO
NORAD 69936·PAYLOAD·🇺🇸 United States
Dieser Satellitenname wurde noch nicht durch offizielle Quellen bestätigt.

Gestartet Jul 7, 2026 von Vandenberg Space Force Base

Loading…

Nächste Überflüge (nächste 24 Stunden)

TLE

AktuellSource: Space-Track

Epoche: Sep 14, 2026, 11:05 UTC

1 69936U 26156BV  26257.46188657  .00001420  00000-0  14332-3 0  9993
2 69936  97.7401 156.7925 0008408 288.0459  71.9844 14.92618694 10312

Verfolge SUCHAI-4 in Echtzeit mit AllMySat

Download on the App Store